K8JWL-13 Weather Reports


Display with metric or nautical units.
time (UTC)temp
F
wind
direction
speed
MPH
gust
MPH
rain 1hr
in
rain 24hr
in
rain mn
in
humidity
%
barometer
mb
20260901003521 80 280 0.0 0.0 185.39 0.00 0.00 79 1018.4
20260901003021 80 280 0.0 0.0 185.39 0.00 0.00 79 1018.4
20260901002521 80 280 0.0 0.0 185.39 0.00 0.00 79 1018.3
20260901001021 81 280 0.0 0.0 185.39 0.00 0.00 77 1018.4
20260831235521 82 280 0.0 0.0 185.39 0.00 0.00 76 1018.5
20260831234521 82 280 0.0 0.0 185.39 0.00 0.00 75 1018.4
20260831234057 83 280 0.0 0.0 185.39 0.00 0.00 75 1018.3
20260831234021 83 280 0.0 0.0 185.39 0.00 0.00 75 1018.3
20260831233522 83 280 0.0 0.0 185.39 0.00 0.00 74 1018.4
20260831232521 84 280 0.0 0.0 185.39 0.00 0.00 74 1018.3
20260831231522 84 280 0.0 0.0 185.39 0.00 0.00 74 1018.2
20260831231021 84 280 0.0 0.0 185.39 0.00 0.00 73 1018.3
20260831230520 84 280 0.0 0.0 185.39 0.00 0.00 73 1018.3
20260831230022 84 280 0.0 0.0 185.39 0.00 0.00 72 1018.3
20260831225521 84 280 0.0 0.0 185.39 0.00 0.00 72 1018.2
20260831224021 84 280 0.0 0.0 185.39 0.00 0.00 71 1018.2
20260831223020 84 280 0.0 0.0 185.39 0.00 0.00 71 1018.3
20260831222521 84 280 0.0 0.0 185.39 0.00 0.00 70 1018.2
20260831221520 84 280 0.0 0.0 185.39 0.00 0.00 69 1018.0
20260831221021 85 280 0.0 0.0 185.39 0.00 0.00 68 1018.0
20260831220604 85 280 0.0 0.0 185.39 0.00 0.00 67 1017.9
20260831220520 85 280 0.0 0.0 185.39 0.00 0.00 67 1017.9
20260831220021 85 280 0.0 0.0 185.39 0.00 0.00 65 1017.9
20260831214021 85 280 0.0 0.0 185.39 0.00 0.00 63 1017.8
20260831213520 85 280 0.0 0.0 185.39 0.00 0.00 63 1017.9
20260831213021 85 280 0.0 0.0 185.39 0.00 0.00 63 1017.9
20260831212521 85 280 0.0 0.0 185.39 0.00 0.00 63 1017.8
20260831212023 85 280 0.0 0.0 185.39 0.00 0.00 63 1017.7
20260831211520 86 280 0.0 0.0 185.39 0.00 0.00 63 1017.9
20260831210522 86 280 0.0 0.0 185.39 0.00 0.00 63 1018.0
20260831205521 86 280 0.0 0.0 185.39 0.00 0.00 64 1018.0
20260831204520 85 280 0.0 0.0 185.39 0.00 0.00 63 1018.3
20260831204021 85 280 0.0 0.0 185.39 0.00 0.00 63 1018.2
20260831201521 85 280 0.0 0.0 185.39 0.00 0.00 65 1018.8
20260831200020 85 280 0.0 0.0 185.39 0.00 0.00 65 1018.6
20260831194521 86 280 0.0 0.0 185.39 0.00 0.00 65 1018.8
20260831191022 86 280 0.0 0.0 185.39 0.00 0.00 59 1019.2
20260831185520 87 280 0.0 0.0 185.39 0.00 0.00 59 1019.2
20260831173020 86 280 0.0 0.0 185.39 0.00 0.00 58 1019.8
20260831171022 85 280 0.0 0.0 185.39 0.00 0.00 60 1019.9
20260831170520 85 280 0.0 0.0 185.39 0.00 0.00 60 1020.0
20260831170020 85 280 0.0 0.0 185.39 0.00 0.00 60 1020.0
20260831165522 85 280 0.0 0.0 185.39 0.00 0.00 59 1020.0
20260831164020 85 280 0.0 0.0 185.39 0.00 0.00 60 1020.1
20260831162023 84 280 0.0 0.0 185.39 0.00 0.00 61 1020.1
20260831160020 82 280 0.0 0.0 185.39 0.00 0.00 65 1020.2
20260831155520 82 280 0.0 0.0 185.39 0.00 0.00 65 1020.2
20260831155020 82 280 0.0 0.0 185.39 0.00 0.00 69 1020.2
20260831152520 80 280 0.0 0.0 185.39 0.00 0.00 71 1020.1
20260831145020 79 280 0.0 0.0 185.39 0.00 0.00 74 1019.9
20260831143205 78 280 0.0 0.0 185.39 0.00 0.00 76 1019.9
20260831143020 78 280 0.0 0.0 185.39 0.00 0.00 76 1019.9
20260831140020 76 280 0.0 0.0 185.39 0.00 0.00 80 1019.5
20260831134748 75 280 0.0 0.0 185.39 0.00 0.00 82 1019.6
20260831134520 75 280 0.0 0.0 185.39 0.00 0.00 82 1019.6
20260831132605 74 280 0.0 0.0 185.39 0.00 0.00 83 1019.7
20260831132525 74 280 0.0 0.0 185.39 0.00 0.00 83 1019.7
20260831131520 74 278 0.0 0.0 185.39 0.00 0.00 85 1019.7
20260831130022 73 278 0.0 0.0 185.39 0.00 0.00 88 1019.7
20260831125520 73 278 0.0 0.0 185.39 0.00 0.00 88 1019.7
20260831124519 73 278 0.0 0.0 185.39 0.00 0.00 88 1019.6
20260831122520 72 295 0.0 0.0 185.39 0.00 0.00 88 1019.6
20260831121520 72 295 0.0 0.0 185.39 0.00 0.00 88 1019.6
20260831121020 72 295 0.0 0.0 185.39 0.00 0.00 88 1019.6
20260831115521 72 295 0.0 0.0 185.39 0.00 0.00 88 1019.5
20260831114519 72 295 0.0 0.0 185.39 0.00 0.00 88 1019.5
20260831114030 72 295 0.0 0.0 185.39 0.00 0.00 88 1019.5
20260831113937 72 295 0.0 0.0 185.39 0.00 0.00 88 1019.3
20260831113523 72 295 0.0 0.0 185.39 0.00 0.00 88 1019.4
20260831112520 72 295 0.0 0.0 185.39 0.00 0.00 88 1019.3
20260831111022 72 256 0.0 0.0 185.39 0.00 0.00 88 1019.0
20260831110521 72 256 0.0 0.0 185.39 0.00 0.00 88 1019.0
20260831110019 72 97 0.0 0.0 185.39 0.00 0.00 88 1018.9
20260831105519 71 97 0.0 0.0 185.39 0.00 0.00 88 1018.9
20260831104520 71 97 0.0 0.0 185.39 0.00 0.00 88 1018.9
20260831104021 71 97 0.0 0.0 185.39 0.00 0.00 88 1018.8
20260831103519 71 228 0.0 0.0 185.39 0.00 0.00 88 1018.9
20260831103019 71 308 0.0 0.0 185.39 0.00 0.00 88 1019.0
20260831102019 71 308 0.0 0.0 185.39 0.00 0.00 88 1019.0
20260831101519 71 308 0.0 0.0 185.39 0.00 0.00 88 1018.9
20260831101019 71 308 0.0 0.0 185.39 0.00 0.00 88 1019.0
20260831100525 71 308 0.0 0.0 185.39 0.00 0.00 88 1018.9
20260831100019 71 308 0.0 0.0 185.39 0.00 0.00 88 1018.9
20260831095521 71 308 0.0 0.0 185.39 0.00 0.00 88 1018.9
20260831094521 71 252 1.0 0.0 185.39 0.00 0.00 88 1019.0
20260831094019 71 122 0.0 0.0 185.39 0.00 0.00 88 1018.9
20260831092022 71 122 0.0 0.0 185.39 0.00 0.00 87 1019.0
20260831091520 71 122 0.0 0.0 185.39 0.00 0.00 87 1019.1
20260831091020 71 122 0.0 0.0 185.39 0.00 0.00 87 1019.1
20260831090524 71 122 0.0 0.0 185.39 0.00 0.00 87 1019.2
20260831090020 71 122 0.0 0.0 185.39 0.00 0.00 87 1019.1
20260831085523 71 122 0.0 0.0 185.39 0.00 0.00 87 1019.0
20260831083520 71 122 0.0 0.0 185.39 0.00 0.00 87 1019.0
20260831083019 71 122 0.0 0.0 185.39 0.00 0.00 87 1018.9
20260831082520 71 122 0.0 0.0 185.39 0.00 0.00 87 1018.9
20260831081519 71 122 0.0 0.0 185.39 0.00 0.00 87 1018.9
20260831080019 71 122 0.0 0.0 185.39 0.00 0.00 87 1018.5
20260831075520 71 122 0.0 0.0 185.39 0.00 0.00 87 1018.5
20260831071519 71 122 0.0 0.0 185.39 0.00 0.00 87 1019.0
20260831070914 71 122 0.0 0.0 185.39 0.00 0.00 87 1019.1
20260831065519 71 122 0.0 0.0 185.39 0.00 0.00 87 1018.9
20260831065019 71 122 0.0 0.0 185.39 0.00 0.00 87 1019.1
20260831064519 71 122 0.0 0.0 185.39 0.00 0.00 87 1019.1
20260831064019 71 122 0.0 0.0 185.39 0.00 0.00 87 1019.1
20260831062519 71 122 0.0 0.0 185.39 0.00 0.00 87 1019.4
20260831062019 71 122 0.0 0.0 185.39 0.00 0.00 86 1019.5
20260831061519 71 122 0.0 0.0 185.39 0.00 0.00 86 1019.5
20260831060519 71 122 0.0 0.0 185.39 0.00 0.00 86 1019.4
20260831060019 71 122 0.0 0.0 185.39 0.00 0.00 86 1019.4
20260831055519 72 122 0.0 0.0 185.39 0.00 0.00 86 1019.4
20260831055022 72 122 0.0 0.0 185.39 0.00 0.00 86 1019.5
20260831054019 72 122 0.0 0.0 185.39 0.00 0.00 86 1019.5
20260831053519 72 122 0.0 0.0 185.39 0.00 0.00 86 1019.5
20260831053019 72 122 0.0 0.0 185.39 0.00 0.00 86 1019.6
20260831052519 72 122 0.0 0.0 185.39 0.00 0.00 86 1019.6
20260831052019 72 122 0.0 0.0 185.39 0.00 0.00 86 1019.6
20260831051519 72 122 0.0 0.0 185.39 0.00 0.00 86 1019.7
20260831051109 72 122 0.0 0.0 185.39 0.00 0.00 86 1019.7
20260831051021 72 122 0.0 0.0 185.39 0.00 0.00 86 1019.7
20260831050519 72 122 0.0 0.0 185.39 0.00 0.00 86 1019.6
20260831045519 72 122 0.0 0.0 185.39 0.00 0.00 86 1019.5
20260831045019 72 122 0.0 0.0 185.39 0.00 0.00 86 1019.5
20260831044021 72 122 0.0 0.0 185.39 0.00 0.00 86 1019.5
20260831043519 72 122 0.0 0.0 185.39 0.00 0.00 85 1019.6
20260831042520 72 122 0.0 0.0 185.39 0.00 0.00 85 1019.6
20260831042019 72 122 0.0 0.0 185.39 0.00 0.00 85 1019.6
20260831041519 72 122 0.0 0.0 185.39 0.00 0.00 85 1019.6
20260831040519 72 122 0.0 0.0 185.39 0.00 0.00 85 1019.6
20260831035519 73 122 0.0 0.0 185.39 0.00 0.00 85 1019.7
20260831034519 73 122 0.0 0.0 185.39 0.00 0.00 85 1019.8
20260831034019 73 122 0.0 0.0 185.39 0.00 0.00 85 1019.7
20260831033519 73 122 0.0 0.0 185.39 0.00 0.00 85 1019.8
20260831033019 73 122 0.0 0.0 185.39 0.00 0.00 84 1019.9
20260831032519 73 122 0.0 0.0 185.39 0.00 0.00 84 1019.8
20260831032022 73 122 0.0 0.0 185.39 0.00 0.00 84 1019.9
20260831031519 73 122 0.0 0.0 185.39 0.00 0.00 84 1019.9
20260831031022 73 122 0.0 0.0 185.39 0.00 0.00 84 1020.0
20260831030519 73 122 0.0 0.0 185.39 0.00 0.00 84 1019.9
20260831025519 73 122 0.0 0.0 185.39 0.00 0.00 84 1019.9
20260831024520 74 122 0.0 0.0 185.39 0.00 0.00 83 1020.0
20260831023519 74 122 0.0 0.0 185.39 0.00 0.00 83 1019.8
20260831023019 74 122 0.0 0.0 185.39 0.00 0.00 83 1019.7
20260831021519 74 122 0.0 0.0 185.39 0.00 0.00 82 1019.9
20260831021019 75 122 0.0 0.0 185.39 0.00 0.00 83 1019.9
20260831020519 75 122 0.0 0.0 185.39 0.00 0.00 83 1020.0
20260831020019 75 122 0.0 0.0 185.39 0.00 0.00 83 1020.0
20260831015519 75 122 0.0 0.0 185.39 0.00 0.00 82 1020.1
20260831014519 75 122 0.0 0.0 185.39 0.00 0.00 82 1020.1
20260831014019 75 122 0.0 0.0 185.39 0.00 0.00 82 1020.1
20260831013519 75 122 0.0 0.0 185.39 0.00 0.00 82 1020.0
20260831013019 76 122 0.0 0.0 185.39 0.00 0.00 82 1019.9
20260831012519 76 122 0.0 0.0 185.39 0.00 0.00 82 1020.0
20260831012019 76 122 0.0 0.0 185.39 0.00 0.00 82 1020.0
20260831011519 76 122 0.0 0.0 185.39 0.00 0.00 82 1020.0
20260831010019 77 122 0.0 0.0 185.39 0.00 0.00 81 1020.0
20260831005019 77 122 0.0 0.0 185.39 0.00 0.00 81 1020.0